Year,Month,Day,Hour,Minute,Value (Times are PST for barometer in hPa)
2020,11,13,00,00,995.18
2020,11,13,00,01,995.16
2020,11,13,00,02,995.16
2020,11,13,00,03,995.16
2020,11,13,00,04,995.16
2020,11,13,00,05,995.16
2020,11,13,00,06,995.16
2020,11,13,00,07,995.16
2020,11,13,00,08,995.16
2020,11,13,00,09,995.16
2020,11,13,00,10,995.16
2020,11,13,00,11,995.16
2020,11,13,00,12,995.16
2020,11,13,00,13,995.16
2020,11,13,00,14,995.16
2020,11,13,00,15,994.48
2020,11,13,00,16,994.48
2020,11,13,00,17,994.48
2020,11,13,00,18,994.48
2020,11,13,00,19,994.48
2020,11,13,00,20,994.48
2020,11,13,00,21,994.48
2020,11,13,00,22,994.48
2020,11,13,00,23,994.48
2020,11,13,00,24,994.48
2020,11,13,00,25,994.48
2020,11,13,00,26,994.48
2020,11,13,00,27,994.48
2020,11,13,00,28,994.48
2020,11,13,00,29,994.48
2020,11,13,00,30,993.71
2020,11,13,00,31,993.67
2020,11,13,00,32,993.67
2020,11,13,00,33,993.67
2020,11,13,00,34,993.67
2020,11,13,00,35,993.67
2020,11,13,00,36,993.67
2020,11,13,00,37,993.67
2020,11,13,00,38,993.67
2020,11,13,00,39,993.67
2020,11,13,00,40,993.67
2020,11,13,00,41,993.67
2020,11,13,00,42,993.67
2020,11,13,00,43,993.67
2020,11,13,00,44,993.67
2020,11,13,00,45,993.21
2020,11,13,00,46,993.19
2020,11,13,00,47,993.19
2020,11,13,00,48,993.19
2020,11,13,00,49,993.19
2020,11,13,00,50,993.19
2020,11,13,00,51,993.19
2020,11,13,00,52,993.19
2020,11,13,00,53,993.19
2020,11,13,00,54,993.19
2020,11,13,00,55,993.19
2020,11,13,00,56,993.19
2020,11,13,00,57,993.19
2020,11,13,00,58,993.19
2020,11,13,00,59,993.19
2020,11,13,01,00,992.55
2020,11,13,01,01,992.55
2020,11,13,01,02,992.55
2020,11,13,01,03,992.55
2020,11,13,01,04,992.55
2020,11,13,01,05,992.55
2020,11,13,01,06,992.55
2020,11,13,01,07,992.55
2020,11,13,01,08,992.55
2020,11,13,01,09,992.55
2020,11,13,01,10,992.55
2020,11,13,01,11,992.55
2020,11,13,01,12,992.55
2020,11,13,01,13,992.55
2020,11,13,01,14,992.55
2020,11,13,01,15,991.74
2020,11,13,01,16,991.70
2020,11,13,01,17,991.70
2020,11,13,01,18,991.70
2020,11,13,01,19,991.70
2020,11,13,01,20,991.70
2020,11,13,01,21,991.70
2020,11,13,01,22,991.70
2020,11,13,01,23,991.70
2020,11,13,01,24,991.70
2020,11,13,01,25,991.70
2020,11,13,01,26,991.70
2020,11,13,01,27,991.70
2020,11,13,01,28,991.70
2020,11,13,01,29,991.70
2020,11,13,01,30,991.03
2020,11,13,01,31,991.03
2020,11,13,01,32,991.03
2020,11,13,01,33,991.03
2020,11,13,01,34,991.03
2020,11,13,01,35,991.03
2020,11,13,01,36,991.03
2020,11,13,01,37,991.03
2020,11,13,01,38,991.03
2020,11,13,01,39,991.03
2020,11,13,01,40,991.03
2020,11,13,01,41,991.03
2020,11,13,01,42,991.03
2020,11,13,01,43,991.03
2020,11,13,01,44,991.03
2020,11,13,01,45,990.25
2020,11,13,01,46,990.25
2020,11,13,01,47,990.25
2020,11,13,01,48,990.25
2020,11,13,01,49,990.25
2020,11,13,01,50,990.25
2020,11,13,01,51,990.25
2020,11,13,01,52,990.25
2020,11,13,01,53,990.25
2020,11,13,01,54,990.25
2020,11,13,01,55,990.25
2020,11,13,01,56,990.25
2020,11,13,01,57,990.25
2020,11,13,01,58,990.25
2020,11,13,01,59,990.25
2020,11,13,02,00,989.57
2020,11,13,02,01,989.57
2020,11,13,02,02,989.57
2020,11,13,02,03,989.57
2020,11,13,02,04,989.57
2020,11,13,02,05,989.57
2020,11,13,02,06,989.57
2020,11,13,02,07,989.57
2020,11,13,02,08,989.57
2020,11,13,02,09,989.57
2020,11,13,02,10,989.57
2020,11,13,02,11,989.57
2020,11,13,02,12,989.57
2020,11,13,02,13,989.57
2020,11,13,02,14,989.57
2020,11,13,02,15,989.13
2020,11,13,02,16,989.13
2020,11,13,02,17,989.13
2020,11,13,02,18,989.13
2020,11,13,02,19,989.13
2020,11,13,02,20,989.13
2020,11,13,02,21,989.13
2020,11,13,02,22,989.13
2020,11,13,02,23,989.13
2020,11,13,02,24,989.13
2020,11,13,02,25,989.13
2020,11,13,02,26,989.13
2020,11,13,02,27,989.13
2020,11,13,02,28,989.13
2020,11,13,02,29,989.13
2020,11,13,02,30,988.87
2020,11,13,02,31,988.86
2020,11,13,02,32,988.86
2020,11,13,02,33,988.86
2020,11,13,02,34,988.86
2020,11,13,02,35,988.86
2020,11,13,02,36,988.86
2020,11,13,02,37,988.86
2020,11,13,02,38,988.86
2020,11,13,02,39,988.86
2020,11,13,02,40,988.86
2020,11,13,02,41,988.86
2020,11,13,02,42,988.86
2020,11,13,02,43,988.86
2020,11,13,02,44,988.86
2020,11,13,02,45,988.28
2020,11,13,02,46,988.25
2020,11,13,02,47,988.25
2020,11,13,02,48,988.25
2020,11,13,02,49,988.25
2020,11,13,02,50,988.25
2020,11,13,02,51,988.25
2020,11,13,02,52,988.25
2020,11,13,02,53,988.25
2020,11,13,02,54,988.25
2020,11,13,02,55,988.25
2020,11,13,02,56,988.25
2020,11,13,02,57,988.25
2020,11,13,02,58,988.25
2020,11,13,02,59,988.25
2020,11,13,03,00,987.54
2020,11,13,03,01,987.51
2020,11,13,03,02,987.51
2020,11,13,03,03,987.51
2020,11,13,03,04,987.51
2020,11,13,03,05,987.51
2020,11,13,03,06,987.51
2020,11,13,03,07,987.51
2020,11,13,03,08,987.51
2020,11,13,03,09,987.51
2020,11,13,03,10,987.51
2020,11,13,03,11,987.51
2020,11,13,03,12,987.51
2020,11,13,03,13,987.51
2020,11,13,03,14,987.51
2020,11,13,03,15,987.06
2020,11,13,03,16,987.06
2020,11,13,03,17,987.06
2020,11,13,03,18,987.06
2020,11,13,03,19,987.06
2020,11,13,03,20,987.06
2020,11,13,03,21,987.06
2020,11,13,03,22,987.06
2020,11,13,03,23,987.06
2020,11,13,03,24,987.06
2020,11,13,03,25,987.06
2020,11,13,03,26,987.06
2020,11,13,03,27,987.06
2020,11,13,03,28,987.06
2020,11,13,03,29,987.06
2020,11,13,03,30,986.42
2020,11,13,03,31,986.42
2020,11,13,03,32,986.42
2020,11,13,03,33,986.42
2020,11,13,03,34,986.42
2020,11,13,03,35,986.42
2020,11,13,03,36,986.42
2020,11,13,03,37,986.42
2020,11,13,03,38,986.42
2020,11,13,03,39,986.42
2020,11,13,03,40,986.42
2020,11,13,03,41,986.42
2020,11,13,03,42,986.42
2020,11,13,03,43,986.42
2020,11,13,03,44,986.42
2020,11,13,03,45,985.98
2020,11,13,03,46,985.98
2020,11,13,03,47,985.98
2020,11,13,03,48,985.98
2020,11,13,03,49,985.98
2020,11,13,03,50,985.98
2020,11,13,03,51,985.98
2020,11,13,03,52,985.98
2020,11,13,03,53,985.98
2020,11,13,03,54,985.98
2020,11,13,03,55,985.98
2020,11,13,03,56,985.98
2020,11,13,03,57,985.98
2020,11,13,03,58,985.98
2020,11,13,03,59,985.98
2020,11,13,04,00,985.71
2020,11,13,04,01,985.71
2020,11,13,04,02,985.71
2020,11,13,04,03,985.71
2020,11,13,04,04,985.71
2020,11,13,04,05,985.71
2020,11,13,04,06,985.71
2020,11,13,04,07,985.71
2020,11,13,04,08,985.71
2020,11,13,04,09,985.71
2020,11,13,04,10,985.71
2020,11,13,04,11,985.71
2020,11,13,04,12,985.71
2020,11,13,04,13,985.71
2020,11,13,04,14,985.71
2020,11,13,04,15,985.22
2020,11,13,04,16,985.20
2020,11,13,04,17,985.20
2020,11,13,04,18,985.20
2020,11,13,04,19,985.20
2020,11,13,04,20,985.20
2020,11,13,04,21,985.20
2020,11,13,04,22,985.20
2020,11,13,04,23,985.20
2020,11,13,04,24,985.20
2020,11,13,04,25,985.20
2020,11,13,04,26,985.20
2020,11,13,04,27,985.20
2020,11,13,04,28,985.20
2020,11,13,04,29,985.20
2020,11,13,04,30,985.27
2020,11,13,04,31,985.27
2020,11,13,04,32,985.27
2020,11,13,04,33,985.27
2020,11,13,04,34,985.27
2020,11,13,04,35,985.27
2020,11,13,04,36,985.27
2020,11,13,04,37,985.27
2020,11,13,04,38,985.27
2020,11,13,04,39,985.27
2020,11,13,04,40,985.27
2020,11,13,04,41,985.27
2020,11,13,04,42,985.27
2020,11,13,04,43,985.27
2020,11,13,04,44,985.27
2020,11,13,04,45,985.14
2020,11,13,04,46,985.13
2020,11,13,04,47,985.13
2020,11,13,04,48,985.13
2020,11,13,04,49,985.13
2020,11,13,04,50,985.13
2020,11,13,04,51,985.13
2020,11,13,04,52,985.13
2020,11,13,04,53,985.13
2020,11,13,04,54,985.13
2020,11,13,04,55,985.13
2020,11,13,04,56,985.13
2020,11,13,04,57,985.13
2020,11,13,04,58,985.13
2020,11,13,04,59,985.13
2020,11,13,05,00,985.27
2020,11,13,05,01,985.27
2020,11,13,05,02,985.27
2020,11,13,05,03,985.27
2020,11,13,05,04,985.27
2020,11,13,05,05,985.27
2020,11,13,05,06,985.27
2020,11,13,05,07,985.27
2020,11,13,05,08,985.27
2020,11,13,05,09,985.27
2020,11,13,05,10,985.27
2020,11,13,05,11,985.27
2020,11,13,05,12,985.27
2020,11,13,05,13,985.27
2020,11,13,05,14,985.27
2020,11,13,05,15,985.27
2020,11,13,05,16,985.27
2020,11,13,05,17,985.27
2020,11,13,05,18,985.27
2020,11,13,05,19,985.27
2020,11,13,05,20,985.27
2020,11,13,05,21,985.27
2020,11,13,05,22,985.27
2020,11,13,05,23,985.27
2020,11,13,05,24,985.27
2020,11,13,05,25,985.27
2020,11,13,05,26,985.27
2020,11,13,05,27,985.27
2020,11,13,05,28,985.27
2020,11,13,05,29,985.27
2020,11,13,05,30,984.76
2020,11,13,05,31,984.76
2020,11,13,05,32,984.76
2020,11,13,05,33,984.76
2020,11,13,05,34,984.76
2020,11,13,05,35,984.76
2020,11,13,05,36,984.76
2020,11,13,05,37,984.76
2020,11,13,05,38,984.76
2020,11,13,05,39,984.76
2020,11,13,05,40,984.76
2020,11,13,05,41,984.76
2020,11,13,05,42,984.76
2020,11,13,05,43,984.76
2020,11,13,05,44,984.76
2020,11,13,05,45,984.25
2020,11,13,05,46,984.25
2020,11,13,05,47,984.25
2020,11,13,05,48,984.25
2020,11,13,05,49,984.25
2020,11,13,05,50,984.25
2020,11,13,05,51,984.25
2020,11,13,05,52,984.25
2020,11,13,05,53,984.25
2020,11,13,05,54,984.25
2020,11,13,05,55,984.25
2020,11,13,05,56,984.25
2020,11,13,05,57,984.25
2020,11,13,05,58,984.25
2020,11,13,05,59,984.25
2020,11,13,06,00,984.71
2020,11,13,06,01,984.73
2020,11,13,06,02,984.73
2020,11,13,06,03,984.73
2020,11,13,06,04,984.73
2020,11,13,06,05,984.73
2020,11,13,06,06,984.73
2020,11,13,06,07,984.73
2020,11,13,06,08,984.73
2020,11,13,06,09,984.73
2020,11,13,06,10,984.73
2020,11,13,06,11,984.73
2020,11,13,06,12,984.73
2020,11,13,06,13,984.73
2020,11,13,06,14,984.73
2020,11,13,06,15,984.57
2020,11,13,06,16,984.56
2020,11,13,06,17,984.56
2020,11,13,06,18,984.56
2020,11,13,06,19,984.56
2020,11,13,06,20,984.56
2020,11,13,06,21,984.56
2020,11,13,06,22,984.56
2020,11,13,06,23,984.56
2020,11,13,06,24,984.56
2020,11,13,06,25,984.56
2020,11,13,06,26,984.56
2020,11,13,06,27,984.56
2020,11,13,06,28,984.56
2020,11,13,06,29,984.56
2020,11,13,06,30,984.59
2020,11,13,06,31,984.59
2020,11,13,06,32,984.59
2020,11,13,06,33,984.59
2020,11,13,06,34,984.59
2020,11,13,06,35,984.59
2020,11,13,06,36,984.59
2020,11,13,06,37,984.59
2020,11,13,06,38,984.59
2020,11,13,06,39,984.59
2020,11,13,06,40,984.59
2020,11,13,06,41,984.59
2020,11,13,06,42,984.59
2020,11,13,06,43,984.59
2020,11,13,06,44,984.59
2020,11,13,06,45,984.76
2020,11,13,06,46,984.76
2020,11,13,06,47,984.76
2020,11,13,06,48,984.76
2020,11,13,06,49,984.76
2020,11,13,06,50,984.76
2020,11,13,06,51,984.76
2020,11,13,06,52,984.76
2020,11,13,06,53,984.76
2020,11,13,06,54,984.76
2020,11,13,06,55,984.76
2020,11,13,06,56,984.76
2020,11,13,06,57,984.76
2020,11,13,06,58,984.76
2020,11,13,06,59,984.76
2020,11,13,07,00,984.73
2020,11,13,07,01,984.73
2020,11,13,07,02,984.73
2020,11,13,07,03,984.73
2020,11,13,07,04,984.73
2020,11,13,07,05,984.73
2020,11,13,07,06,984.73
2020,11,13,07,07,984.73
2020,11,13,07,08,984.73
2020,11,13,07,09,984.73
2020,11,13,07,10,984.73
2020,11,13,07,11,984.73
2020,11,13,07,12,984.73
2020,11,13,07,13,984.73
2020,11,13,07,14,984.73
2020,11,13,07,15,984.76
2020,11,13,07,16,984.76
2020,11,13,07,17,984.76
2020,11,13,07,18,984.76
2020,11,13,07,19,984.76
2020,11,13,07,20,984.76
2020,11,13,07,21,984.76
2020,11,13,07,22,984.76
2020,11,13,07,23,984.76
2020,11,13,07,24,984.76
2020,11,13,07,25,984.76
2020,11,13,07,26,984.76
2020,11,13,07,27,984.76
2020,11,13,07,28,984.76
2020,11,13,07,29,984.76
2020,11,13,07,30,985.20
2020,11,13,07,31,985.20
2020,11,13,07,32,985.20
2020,11,13,07,33,985.20
2020,11,13,07,34,985.20
2020,11,13,07,35,985.20
2020,11,13,07,36,985.20
2020,11,13,07,37,985.20
2020,11,13,07,38,985.20
2020,11,13,07,39,985.20
2020,11,13,07,40,985.20
2020,11,13,07,41,985.20
2020,11,13,07,42,985.20
2020,11,13,07,43,985.20
2020,11,13,07,44,985.20
2020,11,13,07,45,985.29
2020,11,13,07,46,985.30
2020,11,13,07,47,985.30
2020,11,13,07,48,985.30
2020,11,13,07,49,985.30
2020,11,13,07,50,985.30
2020,11,13,07,51,985.30
2020,11,13,07,52,985.30
2020,11,13,07,53,985.30
2020,11,13,07,54,985.30
2020,11,13,07,55,985.30
2020,11,13,07,56,985.30
2020,11,13,07,57,985.30
2020,11,13,07,58,985.30
2020,11,13,07,59,985.30
2020,11,13,08,00,985.37
2020,11,13,08,01,985.37
2020,11,13,08,02,985.37
2020,11,13,08,03,985.37
2020,11,13,08,04,985.37
2020,11,13,08,05,985.37
2020,11,13,08,06,985.37
2020,11,13,08,07,985.37
2020,11,13,08,08,985.37
2020,11,13,08,09,985.37
2020,11,13,08,10,985.37
2020,11,13,08,11,985.37
2020,11,13,08,12,985.37
2020,11,13,08,13,985.37
2020,11,13,08,14,985.37
2020,11,13,08,15,985.47
2020,11,13,08,16,985.47
2020,11,13,08,17,985.47
2020,11,13,08,18,985.47
2020,11,13,08,19,985.47
2020,11,13,08,20,985.47
2020,11,13,08,21,985.47
2020,11,13,08,22,985.47
2020,11,13,08,23,985.47
2020,11,13,08,24,985.47
2020,11,13,08,25,985.47
2020,11,13,08,26,985.47
2020,11,13,08,27,985.47
2020,11,13,08,28,985.47
2020,11,13,08,29,985.47
2020,11,13,08,30,985.51
2020,11,13,08,31,985.51
2020,11,13,08,32,985.51
2020,11,13,08,33,985.51
2020,11,13,08,34,985.51
2020,11,13,08,35,985.51
2020,11,13,08,36,985.51
2020,11,13,08,37,985.51
2020,11,13,08,38,985.51
2020,11,13,08,39,985.51
2020,11,13,08,40,985.51
2020,11,13,08,41,985.51
2020,11,13,08,42,985.51
2020,11,13,08,43,985.51
2020,11,13,08,44,985.51
2020,11,13,08,45,985.54
2020,11,13,08,46,985.54
2020,11,13,08,47,985.54
2020,11,13,08,48,985.54
2020,11,13,08,49,985.54
2020,11,13,08,50,985.54
2020,11,13,08,51,985.54
2020,11,13,08,52,985.54
2020,11,13,08,53,985.54
2020,11,13,08,54,985.54
2020,11,13,08,55,985.54
2020,11,13,08,56,985.54
2020,11,13,08,57,985.54
2020,11,13,08,58,985.54
2020,11,13,08,59,985.54
2020,11,13,09,00,985.20
2020,11,13,09,01,985.20
2020,11,13,09,02,985.20
2020,11,13,09,03,985.20
2020,11,13,09,04,985.20
2020,11,13,09,05,985.20
2020,11,13,09,06,985.20
2020,11,13,09,07,985.20
2020,11,13,09,08,985.20
2020,11,13,09,09,985.20
2020,11,13,09,10,985.20
2020,11,13,09,11,985.20
2020,11,13,09,12,985.20
2020,11,13,09,13,985.20
2020,11,13,09,14,985.20
2020,11,13,09,15,985.71
2020,11,13,09,16,985.71
2020,11,13,09,17,985.71
2020,11,13,09,18,985.71
2020,11,13,09,19,985.71
2020,11,13,09,20,985.71
2020,11,13,09,21,985.71
2020,11,13,09,22,985.71
2020,11,13,09,23,985.71
2020,11,13,09,24,985.71
2020,11,13,09,25,985.71
2020,11,13,09,26,985.71
2020,11,13,09,27,985.71
2020,11,13,09,28,985.71
2020,11,13,09,29,985.71
2020,11,13,09,30,986.16
2020,11,13,09,31,986.18
2020,11,13,09,32,986.18
2020,11,13,09,33,986.18
2020,11,13,09,34,986.18
2020,11,13,09,35,986.18
2020,11,13,09,36,986.18
2020,11,13,09,37,986.18
2020,11,13,09,38,986.18
2020,11,13,09,39,986.18
2020,11,13,09,40,986.18
2020,11,13,09,41,986.18
2020,11,13,09,42,986.18
2020,11,13,09,43,986.18
2020,11,13,09,44,986.18
2020,11,13,09,45,986.38
2020,11,13,09,46,986.39
2020,11,13,09,47,986.39
2020,11,13,09,48,986.39
2020,11,13,09,49,986.39
2020,11,13,09,50,986.39
2020,11,13,09,51,986.39
2020,11,13,09,52,986.39
2020,11,13,09,53,986.39
2020,11,13,09,54,986.39
2020,11,13,09,55,986.39
2020,11,13,09,56,986.39
2020,11,13,09,57,986.39
2020,11,13,09,58,986.39
2020,11,13,09,59,986.39
2020,11,13,10,00,986.81
2020,11,13,10,01,986.83
2020,11,13,10,02,986.83
2020,11,13,10,03,986.83
2020,11,13,10,04,986.83
2020,11,13,10,05,986.83
2020,11,13,10,06,986.83
2020,11,13,10,07,986.83
2020,11,13,10,08,986.83
2020,11,13,10,09,986.83
2020,11,13,10,10,986.83
2020,11,13,10,11,986.83
2020,11,13,10,12,986.83
2020,11,13,10,13,986.83
2020,11,13,10,14,986.83
2020,11,13,10,15,987.35
2020,11,13,10,16,987.37
2020,11,13,10,17,987.37
2020,11,13,10,18,987.37
2020,11,13,10,19,987.37
2020,11,13,10,20,987.37
2020,11,13,10,21,987.37
2020,11,13,10,22,987.37
2020,11,13,10,23,987.37
2020,11,13,10,24,987.37
2020,11,13,10,25,987.37
2020,11,13,10,26,987.37
2020,11,13,10,27,987.37
2020,11,13,10,28,987.37
2020,11,13,10,29,987.37
2020,11,13,10,30,988.28
2020,11,13,10,31,988.32
2020,11,13,10,32,988.32
2020,11,13,10,33,988.32
2020,11,13,10,34,988.32
2020,11,13,10,35,988.32
2020,11,13,10,36,988.32
2020,11,13,10,37,988.32
2020,11,13,10,38,988.32
2020,11,13,10,39,988.32
2020,11,13,10,40,988.32
2020,11,13,10,41,988.32
2020,11,13,10,42,988.32
2020,11,13,10,43,988.32
2020,11,13,10,44,988.32
2020,11,13,10,45,988.90
2020,11,13,10,46,988.93
2020,11,13,10,47,988.93
2020,11,13,10,48,988.93
2020,11,13,10,49,988.93
2020,11,13,10,50,988.93
2020,11,13,10,51,988.93
2020,11,13,10,52,988.93
2020,11,13,10,53,988.93
2020,11,13,10,54,988.93
2020,11,13,10,55,988.93
2020,11,13,10,56,988.93
2020,11,13,10,57,988.93
2020,11,13,10,58,988.93
2020,11,13,10,59,988.93
2020,11,13,11,00,989.50
2020,11,13,11,01,989.50
2020,11,13,11,02,989.50
2020,11,13,11,03,989.50
2020,11,13,11,04,989.50
2020,11,13,11,05,989.50
2020,11,13,11,06,989.50
2020,11,13,11,07,989.50
2020,11,13,11,08,989.50
2020,11,13,11,09,989.50
2020,11,13,11,10,989.50
2020,11,13,11,11,989.50
2020,11,13,11,12,989.50
2020,11,13,11,13,989.50
2020,11,13,11,14,989.50
2020,11,13,11,15,990.38
2020,11,13,11,16,990.42
2020,11,13,11,17,990.42
2020,11,13,11,18,990.42
2020,11,13,11,19,990.42
2020,11,13,11,20,990.42
2020,11,13,11,21,990.42
2020,11,13,11,22,990.42
2020,11,13,11,23,990.42
2020,11,13,11,24,990.42
2020,11,13,11,25,990.42
2020,11,13,11,26,990.42
2020,11,13,11,27,990.42
2020,11,13,11,28,990.42
2020,11,13,11,29,990.42
2020,11,13,11,30,990.54
2020,11,13,11,31,990.55
2020,11,13,11,32,990.55
2020,11,13,11,33,990.55
2020,11,13,11,34,990.55
2020,11,13,11,35,990.55
2020,11,13,11,36,990.55
2020,11,13,11,37,990.55
2020,11,13,11,38,990.55
2020,11,13,11,39,990.55
2020,11,13,11,40,990.55
2020,11,13,11,41,990.55
2020,11,13,11,42,990.55
2020,11,13,11,43,990.55
2020,11,13,11,44,990.55
2020,11,13,11,45,990.94
2020,11,13,11,46,990.96
2020,11,13,11,47,990.96
2020,11,13,11,48,990.96
2020,11,13,11,49,990.96
2020,11,13,11,50,990.96
2020,11,13,11,51,990.96
2020,11,13,11,52,990.96
2020,11,13,11,53,990.96
2020,11,13,11,54,990.96
2020,11,13,11,55,990.96
2020,11,13,11,56,990.96
2020,11,13,11,57,990.96
2020,11,13,11,58,990.96
2020,11,13,11,59,990.96
2020,11,13,12,00,991.03
2020,11,13,12,01,991.03
2020,11,13,12,02,991.03
2020,11,13,12,03,991.03
2020,11,13,12,04,991.03
2020,11,13,12,05,991.03
2020,11,13,12,06,991.03
2020,11,13,12,07,991.03
2020,11,13,12,08,991.03
2020,11,13,12,09,991.03
2020,11,13,12,10,991.03
2020,11,13,12,11,991.03
2020,11,13,12,12,991.03
2020,11,13,12,13,991.03
2020,11,13,12,14,991.03
2020,11,13,12,15,991.57
2020,11,13,12,16,991.60
2020,11,13,12,17,991.60
2020,11,13,12,18,991.60
2020,11,13,12,19,991.60
2020,11,13,12,20,991.60
2020,11,13,12,21,991.60
2020,11,13,12,22,991.60
2020,11,13,12,23,991.60
2020,11,13,12,24,991.60
2020,11,13,12,25,991.60
2020,11,13,12,26,991.60
2020,11,13,12,27,991.60
2020,11,13,12,28,991.60
2020,11,13,12,29,991.60
2020,11,13,12,30,992.01
2020,11,13,12,31,992.01
2020,11,13,12,32,992.01
2020,11,13,12,33,992.01
2020,11,13,12,34,992.01
2020,11,13,12,35,992.01
2020,11,13,12,36,992.01
2020,11,13,12,37,992.01
2020,11,13,12,38,992.01
2020,11,13,12,39,992.01
2020,11,13,12,40,992.01
2020,11,13,12,41,992.01
2020,11,13,12,42,992.01
2020,11,13,12,43,992.01
2020,11,13,12,44,992.01
2020,11,13,12,45,992.18
2020,11,13,12,46,992.18
2020,11,13,12,47,992.18
2020,11,13,12,48,992.18
2020,11,13,12,49,992.18
2020,11,13,12,50,992.18
2020,11,13,12,51,992.18
2020,11,13,12,52,992.18
2020,11,13,12,53,992.18
2020,11,13,12,54,992.18
2020,11,13,12,55,992.18
2020,11,13,12,56,992.18
2020,11,13,12,57,992.18
2020,11,13,12,58,992.18
2020,11,13,12,59,992.18
2020,11,13,13,00,992.44
2020,11,13,13,01,992.45
2020,11,13,13,02,992.45
2020,11,13,13,03,992.45
2020,11,13,13,04,992.45
2020,11,13,13,05,992.45
2020,11,13,13,06,992.45
2020,11,13,13,07,992.45
2020,11,13,13,08,992.45
2020,11,13,13,09,992.45
2020,11,13,13,10,992.45
2020,11,13,13,11,992.45
2020,11,13,13,12,992.45
2020,11,13,13,13,992.45
2020,11,13,13,14,992.45
2020,11,13,13,15,992.71
2020,11,13,13,16,992.72
2020,11,13,13,17,992.72
2020,11,13,13,18,992.72
2020,11,13,13,19,992.72
2020,11,13,13,20,992.72
2020,11,13,13,21,992.72
2020,11,13,13,22,992.72
2020,11,13,13,23,992.72
2020,11,13,13,24,992.72
2020,11,13,13,25,992.72
2020,11,13,13,26,992.72
2020,11,13,13,27,992.72
2020,11,13,13,28,992.72
2020,11,13,13,29,992.72
2020,11,13,13,30,993.02
2020,11,13,13,31,993.03
2020,11,13,13,32,993.03
2020,11,13,13,33,993.03
2020,11,13,13,34,993.03
2020,11,13,13,35,993.03
2020,11,13,13,36,993.03
2020,11,13,13,37,993.03
2020,11,13,13,38,993.03
2020,11,13,13,39,993.03
2020,11,13,13,40,993.03
2020,11,13,13,41,993.03
2020,11,13,13,42,993.03
2020,11,13,13,43,993.03
2020,11,13,13,44,993.03
2020,11,13,13,45,993.55
2020,11,13,13,46,993.57
2020,11,13,13,47,993.57
2020,11,13,13,48,993.57
2020,11,13,13,49,993.57
2020,11,13,13,50,993.57
2020,11,13,13,51,993.57
2020,11,13,13,52,993.57
2020,11,13,13,53,993.57
2020,11,13,13,54,993.57
2020,11,13,13,55,993.57
2020,11,13,13,56,993.57
2020,11,13,13,57,993.57
2020,11,13,13,58,993.57
2020,11,13,13,59,993.57
2020,11,13,14,00,993.63
2020,11,13,14,01,993.63
2020,11,13,14,02,993.63
2020,11,13,14,03,993.63
2020,11,13,14,04,993.63
2020,11,13,14,05,993.63
2020,11,13,14,06,993.63
2020,11,13,14,07,993.63
2020,11,13,14,08,993.63
2020,11,13,14,09,993.63
2020,11,13,14,10,993.63
2020,11,13,14,11,993.63
2020,11,13,14,12,993.63
2020,11,13,14,13,993.63
2020,11,13,14,14,993.63
2020,11,13,14,15,994.11
2020,11,13,14,16,994.11
2020,11,13,14,17,994.11
2020,11,13,14,18,994.11
2020,11,13,14,19,994.11
2020,11,13,14,20,994.11
2020,11,13,14,21,994.11
2020,11,13,14,22,994.11
2020,11,13,14,23,994.11
2020,11,13,14,24,994.11
2020,11,13,14,25,994.11
2020,11,13,14,26,994.11
2020,11,13,14,27,994.11
2020,11,13,14,28,994.11
2020,11,13,14,29,994.11
2020,11,13,14,30,994.63
2020,11,13,14,31,994.65
2020,11,13,14,32,994.65
2020,11,13,14,33,994.65
2020,11,13,14,34,994.65
2020,11,13,14,35,994.65
2020,11,13,14,36,994.65
2020,11,13,14,37,994.65
2020,11,13,14,38,994.65
2020,11,13,14,39,994.65
2020,11,13,14,40,994.65
2020,11,13,14,41,994.65
2020,11,13,14,42,994.65
2020,11,13,14,43,994.65
2020,11,13,14,44,994.65
2020,11,13,14,45,995.10
2020,11,13,14,46,995.12
2020,11,13,14,47,995.12
2020,11,13,14,48,995.12
2020,11,13,14,49,995.12
2020,11,13,14,50,995.12
2020,11,13,14,51,995.12
2020,11,13,14,52,995.12
2020,11,13,14,53,995.12
2020,11,13,14,54,995.12
2020,11,13,14,55,995.12
2020,11,13,14,56,995.12
2020,11,13,14,57,995.12
2020,11,13,14,58,995.12
2020,11,13,14,59,995.12
2020,11,13,15,00,995.64
2020,11,13,15,01,995.67
2020,11,13,15,02,995.67
2020,11,13,15,03,995.67
2020,11,13,15,04,995.67
2020,11,13,15,05,995.67
2020,11,13,15,06,995.67
2020,11,13,15,07,995.67
2020,11,13,15,08,995.67
2020,11,13,15,09,995.67
2020,11,13,15,10,995.67
2020,11,13,15,11,995.67
2020,11,13,15,12,995.67
2020,11,13,15,13,995.67
2020,11,13,15,14,995.67
2020,11,13,15,15,995.99
2020,11,13,15,16,996.01
2020,11,13,15,17,996.01
2020,11,13,15,18,996.01
2020,11,13,15,19,996.01
2020,11,13,15,20,996.01
2020,11,13,15,21,996.01
2020,11,13,15,22,996.01
2020,11,13,15,23,996.01
2020,11,13,15,24,996.01
2020,11,13,15,25,996.01
2020,11,13,15,26,996.01
2020,11,13,15,27,996.01
2020,11,13,15,28,996.01
2020,11,13,15,29,996.01
2020,11,13,15,30,996.33
2020,11,13,15,31,996.34
2020,11,13,15,32,996.34
2020,11,13,15,33,996.34
2020,11,13,15,34,996.34
2020,11,13,15,35,996.34
2020,11,13,15,36,996.34
2020,11,13,15,37,996.34
2020,11,13,15,38,996.34
2020,11,13,15,39,996.34
2020,11,13,15,40,996.34
2020,11,13,15,41,996.34
2020,11,13,15,42,996.34
2020,11,13,15,43,996.34
2020,11,13,15,44,996.34
2020,11,13,15,45,996.70
2020,11,13,15,46,996.72
2020,11,13,15,47,996.72
2020,11,13,15,48,996.72
2020,11,13,15,49,996.72
2020,11,13,15,50,996.72
2020,11,13,15,51,996.72
2020,11,13,15,52,996.72
2020,11,13,15,53,996.72
2020,11,13,15,54,996.72
2020,11,13,15,55,996.72
2020,11,13,15,56,996.72
2020,11,13,15,57,996.72
2020,11,13,15,58,996.72
2020,11,13,15,59,996.72
2020,11,13,16,00,996.85
2020,11,13,16,01,996.85
2020,11,13,16,02,996.85
2020,11,13,16,03,996.85
2020,11,13,16,04,996.85
2020,11,13,16,05,996.85
2020,11,13,16,06,996.85
2020,11,13,16,07,996.85
2020,11,13,16,08,996.85
2020,11,13,16,09,996.85
2020,11,13,16,10,996.85
2020,11,13,16,11,996.85
2020,11,13,16,12,996.85
2020,11,13,16,13,996.85
2020,11,13,16,14,996.85
2020,11,13,16,15,997.27
2020,11,13,16,16,997.29
2020,11,13,16,17,997.29
2020,11,13,16,18,997.29
2020,11,13,16,19,997.29
2020,11,13,16,20,997.29
2020,11,13,16,21,997.29
2020,11,13,16,22,997.29
2020,11,13,16,23,997.29
2020,11,13,16,24,997.29
2020,11,13,16,25,997.29
2020,11,13,16,26,997.29
2020,11,13,16,27,997.29
2020,11,13,16,28,997.29
2020,11,13,16,29,997.29
2020,11,13,16,30,997.91
2020,11,13,16,31,997.94
2020,11,13,16,32,997.94
2020,11,13,16,33,997.94
2020,11,13,16,34,997.94
2020,11,13,16,35,997.94
2020,11,13,16,36,997.94